OK1TOM-6 Weather Reports


time (UTC)temp
C
wind
direction
speed
KPH
gust
KPH
rain 1hr
cm
rain 24hr
cm
rain mn
cm
humidity
%
barometer
mb
20260505140600 19 338 1.6 6.4 0.00 0.00 0.00 60 1009.5
20260505124532 20 0 0.0 3.2 0.00 0.00 0.00 52 1009.8
20260505123529 20 338 1.6 6.4 0.00 0.00 0.00 52 1009.7
20260505122525 21 23 0.0 3.2 0.00 0.00 0.00 49 1009.9
20260505121522 20 328 0.0 3.2 0.00 0.00 0.00 52 1009.9
20260505120518 20 248 0.0 3.2 0.00 0.00 0.00 58 1010.1
20260505115515 19 23 0.0 0.0 0.00 0.00 0.00 62 1010.1
20260505114612 19 23 0.0 0.0 0.00 0.00 0.00 51 1010.1
20260505113608 20 23 0.0 0.0 0.00 0.00 0.00 49 1010.1
20260505112605 20 23 0.0 3.2 0.00 0.00 0.00 47 1010.2
20260505111601 20 23 0.0 0.0 0.00 0.00 0.00 49 1010.1
20260505110558 20 353 1.6 6.4 0.00 0.00 0.00 46 1010.1
20260505101540 21 34 0.0 3.2 0.00 0.00 0.00 47 1010.6
20260505100537 20 315 0.0 3.2 0.00 0.00 0.00 49 1010.7
20260505095534 21 314 1.6 3.2 0.00 0.00 0.00 48 1010.9
20260505094530 21 45 1.6 3.2 0.00 0.00 0.00 46 1010.9
20260505093527 21 0 0.0 3.2 0.00 0.00 0.00 48 1011.0
20260505092523 20 284 1.6 3.2 0.00 0.00 0.00 48 1011.2
20260505091520 20 304 0.0 3.2 0.00 0.00 0.00 49 1011.1
20260505090517 20 297 1.6 6.4 0.00 0.00 0.00 53 1011.2
20260505085613 20 0 0.0 3.2 0.00 0.00 0.00 53 1011.4
20260505084610 19 338 0.0 3.2 0.00 0.00 0.00 55 1011.4
20260505083606 19 351 1.6 3.2 0.00 0.00 0.00 57 1011.4
20260505082603 18 23 1.6 6.4 0.00 0.00 0.00 57 1011.5
20260505081600 18 18 1.6 3.2 0.00 0.00 0.00 59 1011.5
20260505080556 17 293 1.6 3.2 0.00 0.00 0.00 61 1011.6
20260505075553 17 338 1.6 3.2 0.00 0.00 0.00 61 1011.7
20260505074550 17 0 0.0 3.2 0.00 0.00 0.00 63 1011.7
20260505073546 16 0 0.0 3.2 0.00 0.00 0.00 64 1011.7
20260505072543 16 0 1.6 3.2 0.00 0.00 0.00 63 1011.8
20260505071539 16 0 0.0 3.2 0.00 0.00 0.00 63 1011.9
20260505070536 16 356 1.6 3.2 0.00 0.00 0.00 64 1012.0
20260505065532 16 354 1.6 6.4 0.00 0.00 0.00 64 1012.0
20260505064529 16 23 0.0 3.2 0.00 0.00 0.00 65 1012.1
20260505063526 16 311 1.6 6.4 0.00 0.00 0.00 64 1012.2
20260505062522 16 338 0.0 3.2 0.00 0.00 0.00 64 1012.2
20260505061519 15 338 0.0 0.0 0.00 0.00 0.00 66 1012.1
20260505060515 15 135 0.0 0.0 0.00 0.00 0.00 71 1012.2
20260505055612 13 135 0.0 0.0 0.00 0.00 0.00 77 1012.2
20260505054609 12 135 0.0 0.0 0.00 0.00 0.00 83 1012.2
20260505053605 12 135 0.0 0.0 0.00 0.00 0.00 84 1012.3
20260505052602 12 135 0.0 0.0 0.00 0.00 0.00 84 1012.2
20260505051558 12 135 0.0 0.0 0.00 0.00 0.00 83 1012.3
20260505050555 12 135 0.0 0.0 0.00 0.00 0.00 84 1012.3
20260505041537 12 135 0.0 0.0 0.00 0.00 0.00 85 1012.1
20260505040534 12 135 0.0 0.0 0.00 0.00 0.00 86 1012.0
20260505035531 12 135 0.0 0.0 0.00 0.00 0.00 85 1012.0
20260505034527 12 135 0.0 0.0 0.00 0.00 0.00 84 1012.1
20260505033524 12 135 0.0 0.0 0.00 0.00 0.00 83 1012.3
20260505032520 12 135 0.0 0.0 0.00 0.00 0.00 84 1012.4
20260505031517 12 135 0.0 0.0 0.00 0.00 0.00 83 1012.5
20260505030614 12 135 0.0 0.0 0.00 0.00 0.00 82 1012.7
20260505025611 12 135 0.0 0.0 0.00 0.00 0.00 82 1012.6
20260505024607 12 135 0.0 0.0 0.00 0.00 0.00 83 1012.8
20260505023604 12 135 0.0 0.0 0.00 0.00 0.00 83 1012.8
20260505022600 11 135 0.0 0.0 0.00 0.00 0.00 84 1012.8
20260505021557 11 135 0.0 0.0 0.00 0.00 0.00 84 1012.9
20260505020553 12 135 0.0 0.0 0.00 0.00 0.00 82 1012.9
20260505015550 12 135 0.0 0.0 0.00 0.00 0.00 81 1013.0
20260505014547 12 135 0.0 0.0 0.00 0.00 0.00 82 1013.1
20260505013543 12 135 0.0 0.0 0.00 0.00 0.00 81 1013.1
20260505012540 12 135 0.0 0.0 0.00 0.00 0.00 81 1013.2
20260505011536 12 135 0.0 0.0 0.00 0.00 0.00 81 1013.4
20260505010533 12 135 0.0 0.0 0.00 0.00 0.00 80 1013.5
20260505005529 12 135 0.0 0.0 0.00 0.00 0.00 81 1013.6
20260505004526 12 135 0.0 0.0 0.00 0.00 0.00 80 1013.7
20260505003523 12 135 0.0 0.0 0.00 0.00 0.00 78 1013.9
20260505002519 12 135 0.0 0.0 0.00 0.00 0.00 79 1014.0
20260505001516 13 135 0.0 0.0 0.00 0.00 0.00 77 1014.2
20260505000612 12 135 0.0 0.0 0.00 0.00 0.00 77 1014.2
20260504235609 12 135 0.0 0.0 0.00 0.00 0.00 77 1014.3
20260504234606 12 135 0.0 0.0 0.00 0.00 0.00 76 1014.3
20260504233602 13 135 0.0 0.0 0.00 0.00 0.00 77 1014.3
20260504232559 12 135 0.0 0.0 0.00 0.00 0.00 77 1014.4
20260504231555 13 135 0.0 0.0 0.00 0.00 0.00 76 1014.4
20260504230552 13 135 0.0 0.0 0.00 0.00 0.00 76 1014.5
20260504225549 13 135 0.0 0.0 0.00 0.00 0.00 74 1014.6
20260504224545 13 135 0.0 0.0 0.00 0.00 0.00 75 1014.7
20260504223542 13 135 0.0 0.0 0.00 0.00 0.00 73 1014.8
20260504222538 13 135 0.0 0.0 0.00 0.00 0.00 72 1014.8
20260504221535 13 135 0.0 0.0 0.00 0.00 0.00 72 1014.8
20260504220531 13 135 0.0 0.0 0.00 0.00 0.00 72 1014.9
20260504215528 13 135 0.0 0.0 0.00 0.00 0.00 70 1014.7
20260504214524 14 135 0.0 0.0 0.00 0.00 0.00 68 1014.7
20260504213521 13 135 0.0 0.0 0.00 0.00 0.00 69 1014.8
20260504212517 14 135 0.0 0.0 0.00 0.00 0.00 68 1014.9
20260504211614 14 135 0.0 0.0 0.00 0.00 0.00 67 1015.0
20260504210611 14 135 0.0 0.0 0.00 0.00 0.00 66 1015.0
20260504205607 14 135 0.0 0.0 0.00 0.00 0.00 66 1015.1
20260504204604 14 135 0.0 0.0 0.00 0.00 0.00 66 1015.0
20260504203600 13 135 0.0 0.0 0.00 0.00 0.00 67 1015.0
20260504202557 14 135 0.0 0.0 0.00 0.00 0.00 64 1015.1
20260504201554 14 135 0.0 0.0 0.00 0.00 0.00 66 1015.0
20260504200550 15 135 0.0 0.0 0.00 0.00 0.00 65 1015.2
20260504195547 14 135 0.0 0.0 0.00 0.00 0.00 64 1015.2
20260504194543 14 135 0.0 0.0 0.00 0.00 0.00 66 1015.2
20260504193540 14 135 0.0 0.0 0.00 0.00 0.00 66 1015.3
20260504192536 15 135 0.0 0.0 0.00 0.00 0.00 63 1015.3
20260504191533 15 135 0.0 0.0 0.00 0.00 0.00 66 1015.4
20260504190529 15 135 0.0 0.0 0.00 0.00 0.00 61 1015.3
20260504185526 15 135 0.0 0.0 0.00 0.00 0.00 61 1015.3
20260504184522 16 135 0.0 0.0 0.00 0.00 0.00 60 1015.2
20260504183519 16 135 0.0 0.0 0.00 0.00 0.00 60 1015.1
20260504182516 16 135 0.0 0.0 0.00 0.00 0.00 57 1015.1
20260504181613 16 135 0.0 3.2 0.00 0.00 0.00 55 1015.1
20260504180609 17 135 0.0 0.0 0.00 0.00 0.00 56 1015.0
20260504175606 17 135 0.0 0.0 0.00 0.00 0.00 56 1015.0
20260504174602 17 135 0.0 0.0 0.00 0.00 0.00 54 1015.0
20260504173559 18 135 0.0 0.0 0.00 0.00 0.00 53 1014.9
20260504172555 18 135 0.0 0.0 0.00 0.00 0.00 48 1014.9
20260504171552 19 135 0.0 0.0 0.00 0.00 0.00 44 1014.9
20260504170549 20 135 0.0 0.0 0.00 0.00 0.00 42 1015.0
20260504150607 20 158 0.0 0.0 0.00 0.00 0.00 39 1015.6